When you browse on this site, cookies collect data to enhance your experience and personalize the content and advertising you see.
Visit our Privacy Policy to learn more. By continuing to use the site, you agree to this use of cookies and data.
  • In France
  • List of Countries
  • For 7 days
  • Water Temperature
  • Satellite Maps
  • Weather Map
  • Weather Widgets
  • user-avatar
    Login

    Hourly Weather Trencin

    Today, 16 June, Sunday

    Time Temperature Precipitation Wind Pressure Humidity
    00:00 +22°C° 0.1 mm 1 mps 737 mmHg 88%
    01:00 +21°C° 0.1 mm 1 mps 737 mmHg 89%
    02:00 +21°C° 0.8 mm 1 mps 737 mmHg 91%
    03:00 +21°C° 0.8 mm 1 mps 737 mmHg 93%
    04:00 +20°C° 0.8 mm 2 mps 737 mmHg 95%
    05:00 +22°C° 0 mm 1 mps 737 mmHg 92%
    06:00 +23°C° 0 mm 1 mps 737 mmHg 89%
    07:00 +22°C° 0 mm 0 mps 738 mmHg 86%
    08:00 +26°C° 0.2 mm 1 mps 738 mmHg 80%
    09:00 +27°C° 0.2 mm 1 mps 738 mmHg 75%
    10:00 +28°C° 0.2 mm 2 mps 738 mmHg 69%
    11:00 +29°C° 1.6 mm 2 mps 739 mmHg 68%
    12:00 +29°C° 1.6 mm 2 mps 739 mmHg 66%
    13:00 +29°C° 1.6 mm 2 mps 739 mmHg 65%
    14:00 +28°C° 1.5 mm 3 mps 739 mmHg 71%
    15:00 +27°C° 1.5 mm 3 mps 739 mmHg 77%
    16:00 +26°C° 1.5 mm 3 mps 739 mmHg 82%
    17:00 +24°C° 0.8 mm 3 mps 739 mmHg 85%
    18:00 +22°C° 0.8 mm 3 mps 739 mmHg 88%
    19:00 +21°C° 0.8 mm 3 mps 739 mmHg 91%
    20:00 +20°C° 0 mm 3 mps 739 mmHg 92%
    21:00 +19°C° 0 mm 3 mps 740 mmHg 93%
    22:00 +18°C° 0 mm 2 mps 740 mmHg 95%
    23:00 +17°C° 0 mm 2 mps 740 mmHg 94%

    Tomorrow, 17 June, Monday

    Time Temperature Precipitation Wind Pressure Humidity
    00:00 +17°C° 0 mm 2 mps 740 mmHg 94%
    01:00 +16°C° 0 mm 2 mps 740 mmHg 94%
    02:00 +16°C° 0 mm 2 mps 740 mmHg 94%
    03:00 +16°C° 0 mm 2 mps 740 mmHg 94%
    04:00 +15°C° 0 mm 2 mps 740 mmHg 94%
    05:00 +17°C° 0 mm 3 mps 740 mmHg 89%
    06:00 +18°C° 0 mm 3 mps 741 mmHg 85%
    07:00 +20°C° 0 mm 4 mps 741 mmHg 80%
    08:00 +21°C° 0 mm 4 mps 741 mmHg 72%
    09:00 +23°C° 0 mm 4 mps 741 mmHg 64%
    10:00 +25°C° 0 mm 5 mps 741 mmHg 57%
    11:00 +26°C° 0 mm 4 mps 741 mmHg 53%
    12:00 +27°C° 0 mm 4 mps 741 mmHg 50%
    13:00 +28°C° 0 mm 4 mps 741 mmHg 46%
    14:00 +27°C° 0 mm 4 mps 741 mmHg 48%
    15:00 +27°C° 0 mm 4 mps 740 mmHg 51%
    16:00 +27°C° 0 mm 3 mps 740 mmHg 53%
    17:00 +25°C° 0 mm 3 mps 740 mmHg 59%
    18:00 +22°C° 0 mm 3 mps 740 mmHg 64%
    19:00 +21°C° 0 mm 2 mps 740 mmHg 70%
    20:00 +20°C° 0 mm 2 mps 740 mmHg 71%
    21:00 +19°C° 0 mm 2 mps 740 mmHg 73%
    22:00 +18°C° 0 mm 2 mps 740 mmHg 74%
    23:00 +17°C° 0 mm 2 mps 740 mmHg 77%

    Day after tomorrow, 18 June, Tuesday

    Time Temperature Precipitation Wind Pressure Humidity
    00:00 +17°C° 0 mm 2 mps 740 mmHg 80%
    01:00 +16°C° 0 mm 1 mps 739 mmHg 83%
    02:00 +16°C° 0 mm 1 mps 739 mmHg 84%
    03:00 +16°C° 0 mm 1 mps 739 mmHg 85%
    04:00 +15°C° 0 mm 1 mps 739 mmHg 86%
    05:00 +18°C° 0 mm 1 mps 739 mmHg 81%
    06:00 +20°C° 0 mm 1 mps 740 mmHg 76%
    07:00 +22°C° 0 mm 1 mps 740 mmHg 72%
    08:00 +24°C° 0 mm 1 mps 740 mmHg 67%
    09:00 +26°C° 0 mm 1 mps 740 mmHg 62%
    10:00 +26°C° 0 mm 0 mps 740 mmHg 57%
    11:00 +29°C° 0.1 mm 1 mps 739 mmHg 56%
    12:00 +29°C° 0.1 mm 1 mps 739 mmHg 55%
    13:00 +29°C° 0.1 mm 1 mps 739 mmHg 54%
    14:00 +28°C° 1.1 mm 1 mps 738 mmHg 63%
    15:00 +27°C° 1.1 mm 1 mps 738 mmHg 71%
    16:00 +24°C° 1.1 mm 0 mps 737 mmHg 80%
    17:00 +23°C° 0.5 mm 0 mps 737 mmHg 82%
    18:00 +22°C° 0.5 mm 0 mps 737 mmHg 84%
    19:00 +22°C° 0.5 mm 0 mps 737 mmHg 86%
    20:00 +23°C° 0.2 mm 1 mps 737 mmHg 87%
    21:00 +22°C° 0.2 mm 1 mps 737 mmHg 89%
    22:00 +21°C° 0.2 mm 1 mps 737 mmHg 90%
    23:00 +21°C° 0 mm 1 mps 737 mmHg 91%

    19 June, Wednesday

    Time Temperature Precipitation Wind Pressure Humidity
    00:00 +21°C° 0 mm 1 mps 737 mmHg 91%
    01:00 +21°C° 0 mm 1 mps 737 mmHg 92%
    02:00 +21°C° 0 mm 1 mps 737 mmHg 92%
    03:00 +20°C° 0 mm 1 mps 737 mmHg 92%
    04:00 +18°C° 0 mm 0 mps 737 mmHg 92%
    05:00 +19°C° 0.1 mm 0 mps 737 mmHg 90%
    06:00 +22°C° 0.1 mm 1 mps 737 mmHg 88%
    07:00 +23°C° 0.1 mm 1 mps 737 mmHg 87%
    08:00 +25°C° 0.3 mm 1 mps 737 mmHg 80%
    09:00 +26°C° 0.3 mm 1 mps 737 mmHg 73%
    10:00 +28°C° 0.3 mm 1 mps 737 mmHg 66%
    11:00 +28°C° 1 mm 2 mps 737 mmHg 66%
    12:00 +28°C° 1 mm 2 mps 737 mmHg 67%
    13:00 +28°C° 1 mm 2 mps 736 mmHg 68%
    14:00 +28°C° 1.1 mm 1 mps 736 mmHg 69%
    15:00 +28°C° 1.1 mm 1 mps 736 mmHg 70%
    16:00 +28°C° 1.1 mm 1 mps 736 mmHg 71%
    17:00 +26°C° 1.3 mm 1 mps 736 mmHg 76%
    18:00 +23°C° 1.3 mm 0 mps 735 mmHg 81%
    19:00 +22°C° 1.3 mm 0 mps 735 mmHg 85%
    20:00 +23°C° 0.7 mm 1 mps 735 mmHg 88%
    21:00 +22°C° 0.7 mm 1 mps 736 mmHg 90%
    22:00 +21°C° 0.7 mm 1 mps 736 mmHg 92%
    23:00 +21°C° 0 mm 1 mps 736 mmHg 92%

    20 June, Thursday

    Time Temperature Precipitation Wind Pressure Humidity
    00:00 +21°C° 0 mm 1 mps 735 mmHg 91%
    01:00 +20°C° 0 mm 1 mps 735 mmHg 91%
    02:00 +20°C° 0.1 mm 1 mps 735 mmHg 91%
    03:00 +20°C° 0.1 mm 1 mps 735 mmHg 91%
    04:00 +19°C° 0.1 mm 1 mps 735 mmHg 91%
    05:00 +21°C° 0 mm 1 mps 736 mmHg 88%
    06:00 +20°C° 0 mm 0 mps 736 mmHg 86%
    07:00 +21°C° 0 mm 0 mps 736 mmHg 83%
    08:00 +23°C° 0.7 mm 0 mps 736 mmHg 78%
    09:00 +24°C° 0.7 mm 0 mps 736 mmHg 72%
    10:00 +26°C° 0.7 mm 0 mps 736 mmHg 67%
    11:00 +28°C° 1 mm 1 mps 736 mmHg 64%
    12:00 +29°C° 1 mm 1 mps 736 mmHg 61%
    13:00 +29°C° 1 mm 1 mps 736 mmHg 58%
    14:00 +29°C° 1 mm 1 mps 737 mmHg 61%
    15:00 +29°C° 1 mm 1 mps 737 mmHg 65%
    16:00 +28°C° 1 mm 1 mps 737 mmHg 68%
    17:00 +27°C° 0.3 mm 1 mps 737 mmHg 73%
    18:00 +24°C° 0.3 mm 0 mps 737 mmHg 78%
    19:00 +23°C° 0.3 mm 0 mps 737 mmHg 83%
    20:00 +22°C° 0 mm 0 mps 737 mmHg 85%
    21:00 +20°C° 0 mm 0 mps 737 mmHg 88%
    22:00 +19°C° 0 mm 0 mps 737 mmHg 90%
    23:00 +19°C° 0 mm 0 mps 737 mmHg 91%

    21 June, Friday

    Time Temperature Precipitation Wind Pressure Humidity
    00:00 +18°C° 0 mm 0 mps 737 mmHg 91%
    01:00 +18°C° 0 mm 0 mps 737 mmHg 92%
    02:00 +19°C° 0 mm 1 mps 737 mmHg 92%
    03:00 +19°C° 0 mm 1 mps 737 mmHg 92%
    04:00 +19°C° 0 mm 1 mps 737 mmHg 93%
    05:00 +21°C° 0 mm 1 mps 737 mmHg 88%
    06:00 +22°C° 0 mm 1 mps 737 mmHg 84%
    07:00 +22°C° 0 mm 0 mps 738 mmHg 80%
    08:00 +26°C° 0 mm 1 mps 738 mmHg 73%
    09:00 +27°C° 0 mm 1 mps 738 mmHg 67%
    10:00 +29°C° 0 mm 1 mps 738 mmHg 60%
    11:00 +29°C° 0.3 mm 1 mps 737 mmHg 61%
    12:00 +30°C° 0.3 mm 2 mps 737 mmHg 61%
    13:00 +30°C° 0.3 mm 2 mps 737 mmHg 62%
    14:00 +29°C° 1.3 mm 2 mps 736 mmHg 67%
    15:00 +29°C° 1.3 mm 2 mps 736 mmHg 71%
    16:00 +28°C° 1.3 mm 2 mps 736 mmHg 76%
    17:00 +27°C° 1.4 mm 1 mps 736 mmHg 79%
    18:00 +26°C° 1.4 mm 1 mps 736 mmHg 83%
    19:00 +23°C° 1.4 mm 0 mps 736 mmHg 87%
    20:00 +22°C° 0.2 mm 0 mps 736 mmHg 88%
    21:00 +21°C° 0.2 mm 0 mps 736 mmHg 89%
    22:00 +20°C° 0.2 mm 0 mps 737 mmHg 89%
    23:00 +20°C° 1.2 mm 0 mps 737 mmHg 91%
    Show more